DMSP 5D-2 F13 DEB, 40568

Orbit data source: Space-Track

DMSP 5D-2 F13 DEB, 40568 is space debris in SSO originally from a launch on Fri, 24 Mar 1995 UTC launched from the Air Force Western Test Range (AFWTR). Debris objects in space refer to the collection of defunct objects orbiting the Earth. Examples of debris include non-operational satellites, rocket bodies, and fragments generated from explosions, collisions, or faulty payload assembly.

Loading next visibility...
Identifier
40568, 1995-015EB
Orbit
SSO
Country
Flag of USUS
Related business
Manufacturer
Unknown
Mission
Spacecraft
Bus & Motor
Unknown
Mass
Unknown
Launch date (UTC)
1995-03-24 (31 years ago)
Launch vehicle
Unknown
Launch site
Air Force Western Test Range (AFWTR)
Object type
Payload
Rocket body
Debris
Shape & HBR
Unknown shape, 0.1 m
Radar Cross Section
Small (<0.1 m²)

Expand to show TLE details & history
Last TLE update: 7 hours ago

TLE from 7 hours ago
0 DMSP 5D-2 F13 DEB
1 40568U 95015EB  25308.02297766  .00005466  00000-0  19581-2 0  9997
2 40568  98.8568 332.2297 0030222 117.6605 242.7651 14.34126735547988
Epoch: 2025-11-04T00:33Z
TLE epoch observation values (Epoch: 2025-11-04T00:33:05.269Z)
Latitude
-0.00012°
Longitude
-79.55819°
Altitude
790.85 km
Speed
7.453 km/s
True Right ascension
22h 08m 55s
True Declination
0° 00' 00"
Sunlit
Object was in daylight at epoch
Visualization orbit readout
Latitude
Unknown
Longitude
Unknown
Altitude
Unknown
Speed
Unknown
Apparent Right ascension
Unknown
Apparent Declination
Unknown
Sunlit
N/A
Visualization observer readout
Local Sidereal Time
03:30:13
Azimuth
Unknown
Elevation
Unknown
Doppler factor
Unknown
Orbital elements
Apogee altitude
796.735 km
Perigee altitude
753.498 km
Semi-major axis
7,153.254 km
Eccentricity
0.00302
Inclination
98.8568°
RAAN
332.2297°
Arg. of periapsis
117.6605°
True anomaly
242.45771°
Mean anomaly
242.7651°
Eccentric anomaly
242.61135°
Mean motion
3.58747 °/min
Orbital period
100.35 mins
BSTAR
0.0019581
Loading maneuver chart data...
Computing Atmospheric mass density...

Documentation

Showing up to 5 results
|